Location: Pasarilla del Rebollar
(40.6790°N, 5.0062°W)
Time: 11:27:13
(UTC+00:00)

NOSS 3-4 (C) - Pass Details

Date: 22 April 2026
Orbit: 773 x 1438 km, 63.4° (Epoch: 26 December)

Event Time Altitude Azimuth Distance (km) Brightness Sun altitude
Rises 03:35:18 0° 326° (NW) 3,759 6.6 -20.3°
Reaches altitude 10° 03:37:44 10° 328° (NNW) 2,893 6.0 -19.9°
Maximum altitude 03:44:43 78° 54° (NE) 1,223 4.1 -18.9°
Drops below altitude 10° 03:52:54 10° 142° (SE) 3,358 6.3 -17.6°
Sets 03:55:56 0° 143° (SE) 4,395 6.9 -17.1°
